OBJECT C, 60014

Orbit data source: Space-Track

You're viewing an Uncataloged Satellite

Recently launched and/or uncataloged satellites may have evolving metadata. Metadata may include but not limited to: Owner, Maufacturer, Bus, Motor, and Mission.

OBJECT C, 60014 is a satellite owned by Tsinghua (CN) in SSO that was launched on Thu, 06 Jun 2024 UTC via a GUSHENXING 1 launch vehicle from the Jiuquan Satellite Launch Center, China (JSC). Unknown objects in Earth's orbit typically refer to objects detected orbiting the Earth but have not yet been identified or cataloged. These objects could be anything from previously untracked satellites, spent rocket stages, debris from satellite collisions, or even natural meteoroids temporarily captured by Earth's gravity.

Loading next visibility...
Identifier
60014, 2024-110C
Orbit
SSO
Last TLE update
6 hours ago
Origin
Manufacturer
Tsinghua
Mission
Operational spacecraft
Bus & Motor
NAXING, Unknown motor
Mass
20 kg wet, 20 kg dry
Launch date (UTC)
2024-06-06 (1 year ago)
Launch vehicle
GUSHENXING 1
Launch site
Jiuquan Satellite Launch Center, China (JSC)
Object type
Unknown
Shape & HBR
Unknown
Radar Cross Section
Large (>1 m²)

Expand to show TLE details & history

TLE from 6 hours ago
0 OBJECT C
1 60014U 24110C   25182.84919434  .00001613  00000-0  14595-3 0  9997
2 60014  97.5788 264.2918 0010351 241.9409 118.0767 14.96739939 58449
Epoch: 2025-07-01T20:22Z
TLE epoch observation values (Epoch: 2025-07-01T20:22:50.39Z)
Latitude
-0.00003°
Longitude
38.4431°
Altitude
583.426 km
Speed
7.567 km/s
True Right ascension
17h 37m 10s
True Declination
0° 00' 00"
Sunlit
Object was in full shadow at epoch
Visualization orbit readout
Latitude
-62.41775°
Longitude
53.36431°
Altitude
596.889 km
Speed
7.562 km/s
Apparent Right ascension
23h 34m 02s
Apparent Declination
-65° 31' 48"
Sunlit
Object is in full shadow
Visualization observer readout
Local Sidereal Time
14:12:04
Azimuth
151.876° SSE
Elevation
-56.011°
Doppler factor
1
Orbital elements
Apogee altitude
581.178 km
Perigee altitude
566.786 km
Semi-major axis
6,952.119 km
Eccentricity
0.00104
Inclination
97.5788°
RAAN
264.2918°
Arg. of periapsis
241.9409°
True anomaly
Unknown
Mean anomaly
118.0767°
Eccentric anomaly
Unknown
Mean motion
3.74427 °/min
Orbital period
96.15 mins
BSTAR
0.00014595
Loading maneuver chart data...
Loading SW <> Apogee altitude chart data...
Loading historical data...
Loading historical data...
Loading historical data...
Loading historical data...
Loading historical data...
Loading historical data...
Loading historical data...
Other satellites on launch #110 in the year 2024 (2024-06-06 UTC)

OBJECT C Visibility forecast

Observer location: undefined°, undefined°

Span
Click to sort rows by Start time (UTC) header in descending order
Start Az.
Max El. time (UTC)
Max El. Az.
Max El.
End time (UTC)
End Az.
5 mins2025-07-02 04:32:59.228Z114.156° SE2025-07-02 04:35:59.228Z64.376° ENE19.376°2025-07-02 04:37:59.228Z29.503° NE
5 mins2025-07-02 06:08:59.228Z219.375° SW2025-07-02 06:10:59.228Z266.378° W26.563°2025-07-02 06:13:59.228Z321.57° NNW
5 mins2025-07-02 17:49:59.228Z45.033° ENE2025-07-02 17:51:59.228Z97.723° ESE31.41°2025-07-02 17:54:59.228Z161.453° S
|